Home > Weather > Shreveport > Past weeks

Flag for USA Past Weather in Shreveport, Louisiana, USA — Yesterday and Last 2 Weeks

Now
87 °F

Scattered clouds.


Feels Like: 98 °F
Forecast: 74 / 92 °F
Wind: 10 mph from West

Location: Shreveport Regional Airport

Current Time: Jul 29, 2016 at 1:02:33 PM

Latest Report: Jul 29, 2016 at 12:03 PM


Visibility: 10 mi

Pressure: 30.03 "Hg

Humidity: 69%

Dew Point: 76 °F

Location of ShreveportLocation

Past Weather in Shreveport — Graph

°F

Shreveport Temperature Yesterday

Maximum temperature yesterday: 83 °F (at 11:56 AM)
Minimum temperature yesterday: 73 °F (at 10:56 PM)
Average temperature yesterday: 76 °F

High & Low Weather Summary for the Past Weeks

 TemperatureHumidityPressure
High100 °F (Jul 22, 2:56 PM)100% (Jul 28, 6:56 AM)30.22 "Hg (Jul 28, 6:56 AM)
Low73 °F (Jul 15, 8:56 PM)42% (Jul 20, 4:56 PM)29.84 "Hg (Jul 26, 5:56 PM)
Average84 °F74%30.01 "Hg
* Reported Jul 14 11:56 AM — Jul 29 11:56 AM, Shreveport, Weather by CustomWeather, © 2016

Note: Actual official high and low records may vary slightly from our data, if they occured in-between our weather recording intervals... More about our weather records

Advertising

Shreveport Weather History for the Previous 24 Hours

Scroll right to see more
 ConditionsComfort  
Time TempWeatherWind HumidityBarometerVisibility
11:56 AM
Fri, Jul 29
88 °FPartly sunny.12 mph67%30.02 "Hg10 mi
10:56 AM85 °FPartly sunny.12 mph80%30.03 "Hg10 mi
9:56 AM82 °FPartly sunny.6 mph85%30.04 "Hg10 mi
8:56 AM78 °FMore clouds than sun.5 mph93%30.03 "Hg10 mi
7:56 AM75 °FMore clouds than sun.5 mph96%30.01 "Hg10 mi
6:56 AM73 °FPassing clouds.3 mph100%29.99 "Hg10 mi
5:56 AM73 °FMostly cloudy.3 mph100%29.97 "Hg10 mi
4:56 AM73 °FPassing clouds.5 mph100%29.98 "Hg10 mi
3:56 AM73 °FLow clouds.No wind100%29.99 "Hg10 mi
2:56 AM73 °FMostly cloudy.No wind100%29.99 "Hg10 mi
1:56 AM73 °FMostly cloudy.No wind97%29.98 "Hg10 mi
12:56 AM73 °FPartly cloudy.No wind100%29.98 "Hg10 mi
11:56 PM
Thu, Jul 28
73 °FPartly cloudy.No wind100%29.97 "Hg10 mi
10:56 PM73 °FPartly cloudy.No wind100%29.96 "Hg10 mi
9:56 PM74 °FPassing clouds.No wind97%29.95 "Hg10 mi
8:56 PM74 °FPartly sunny.No wind97%29.95 "Hg10 mi
7:56 PM74 °FPartly sunny.6 mph97%29.94 "Hg10 mi
6:56 PM75 °FMore clouds than sun.7 mph94%29.96 "Hg10 mi
5:56 PM75 °FLight rain. Mostly cloudy.5 mph96%29.97 "Hg10 mi
4:56 PM74 °FRain. Mostly cloudy.6 mph97%29.95 "Hg7 mi
3:56 PM74 °FLight rain. Cloudy.6 mph94%29.98 "Hg7 mi
2:56 PM75 °FThunderstorms. Mostly cloudy.8 mph88%30.01 "Hg10 mi
1:56 PM76 °FLight rain. Broken clouds.No wind97%30.02 "Hg10 mi
Weather by CustomWeather, © 2016

See weather overviewHow to use our weather pages